Location: *
(35.8942°N, 23.3025°E)
Time: 06:54:18
(UTC+00:00)

Cosmos 2266 Rocket - Pass Details

Date: 21 September 2021
Orbit: 933 x 1009 km, 82.9° (Epoch: 21 October)

Event Time Altitude Azimuth Distance (km) Brightness Sun altitude
Rises 01:55:19 0° 353° (N) 3,646 7.2 -28.1°
Reaches altitude 10° 01:57:50 10° 353° (N) 2,687 6.5 -27.6°
Maximum altitude 02:03:58 88° 268° (W) 948 3.8 -26.5°
Enters shadow 02:08:29 19° 176° (S) 2,076 5.5 -25.6°
